Arden, NC

3:45 AM EST on January 22, 2017 (GMT -0500)
Asheville Regional

Weather History for KAVL - February, 2007

Change the Weather History Date:

Sunday, February 4, 2007

  Actual Average Record
Temperature  
Mean Temperature 30 °F 38 °F  
Max Temperature 40 °F 49 °F 73 °F (1890)
Min Temperature 20 °F 28 °F -2 °F (1917)
Degree Days  
Heating Degree Days 35 27  
Month to date heating degree days 134 108  
Since 1 July heating degree days 2534 2635  
Cooling Degree Days 0 0  
Month to date cooling degree days 0 0  
Year to date cooling degree days 0 0  
Moisture  
Dew Point 9 °F    
Average Humidity 45    
Maximum Humidity 67    
Minimum Humidity 23    
Precipitation  
Precipitation T in 0.14 in 2.04 in (1899)
Month to date precipitation 0.12 0.54  
Year to date precipitation 3.47 4.21  
Snow  
Snow T in 0.10 in 3.00 in (2010)
Month to date snowfall T 0.4  
Since 1 July snowfall 0.9 5.5  
Snow Depth -    
Sea Level Pressure  
Sea Level Pressure 30.19 in    
Wind  
Wind Speed 7 mph (NNW)    
Max Wind Speed 22 mph    
Max Gust Speed 29 mph    
Visibility 10 miles    
Events      
T = Trace of Precipitation, MM = Missing Value Source: NWS Daily Summary

Daily Weather History Graph

Daily Weather History Graph

Search for Another Location

Airport or City:

Trip Planner

Search our weather history database for the weather conditions in past years. The results will help you decide how hot, cold, wet, or windy it might be!

Date:

Astronomy

Feb. 04, 2007 Rise Set
Actual Time 7:27 AM EST 6:00 PM EST
Civil Twilight 7:01 AM EST 6:27 PM EST
Nautical Twilight 6:30 AM EST 6:57 PM EST
Astronomical Twilight 6:00 AM EST 7:27 PM EST
Moon 8:32 PM EST (2/4) 8:47 AM EST (2/4)
Length of Visible Light 11h 26m
Length of Day
10h 33m
Waning Gibbous, 94% of the Moon is Illuminated
Feb 4
Waning Gibbous
Feb 10
Last Quarter
Feb 17
New
Feb 24
First Quarter
Mar 3
Full

Hourly Weather History & Observations

Time (EST) Temp. Windchill Dew Point Humidity Pressure Visibility Wind Dir Wind Speed Gust Speed Precip Events Conditions
12:54 AM 25.0 °F 18.1 °F 8.1 °F 49% 30.19 in 10.0 mi NNW 5.8 mph - N/A   Clear
1:54 AM 21.9 °F - 10.9 °F 63% 30.18 in 10.0 mi Calm Calm - N/A   Clear
2:54 AM 25.0 °F 18.1 °F 8.1 °F 49% 30.19 in 10.0 mi North 5.8 mph - N/A   Clear
3:54 AM 21.9 °F 17.2 °F 10.0 °F 60% 30.19 in 10.0 mi South 3.5 mph - N/A   Clear
4:54 AM 21.9 °F - 10.9 °F 63% 30.19 in 10.0 mi Calm Calm - N/A   Clear
5:54 AM 21.0 °F - 10.0 °F 63% 30.20 in 10.0 mi Calm Calm - N/A   Clear
6:54 AM 21.0 °F - 10.9 °F 65% 30.21 in 10.0 mi Calm Calm - N/A   Clear
7:54 AM 19.9 °F 14.9 °F 10.0 °F 65% 30.22 in 10.0 mi Variable 3.5 mph - N/A   Clear
8:54 AM 28.0 °F 24.2 °F 12.9 °F 53% 30.20 in 10.0 mi South 3.5 mph - N/A   Mostly Cloudy
9:54 AM 34.0 °F 28.8 °F 12.0 °F 40% 30.17 in 10.0 mi ENE 5.8 mph - N/A   Scattered Clouds
10:54 AM 39.9 °F 35.1 °F 14.0 °F 35% 30.16 in 10.0 mi Variable 6.9 mph 17.3 mph N/A   Mostly Cloudy
11:54 AM 39.0 °F 29.9 °F 17.1 °F 41% 30.18 in 10.0 mi NW 17.3 mph 28.8 mph N/A   Overcast
12:54 PM 39.9 °F 33.4 °F 19.0 °F 43% 30.16 in 10.0 mi West 10.4 mph 17.3 mph N/A   Overcast
1:28 PM 33.8 °F 24.8 °F 24.8 °F 70% 30.12 in 10.0 mi NNE 12.7 mph - N/A   Overcast
1:54 PM 35.1 °F 26.4 °F 24.1 °F 64% 30.16 in 10.0 mi North 12.7 mph - 0.00 in   Overcast
2:54 PM 37.0 °F 30.4 °F 17.1 °F 44% 30.14 in 10.0 mi NW 9.2 mph - N/A   Overcast
3:54 PM 37.0 °F 31.0 °F 6.1 °F 28% 30.15 in 10.0 mi WNW 8.1 mph - N/A   Clear
4:54 PM 35.1 °F 25.9 °F 1.9 °F 25% 30.16 in 10.0 mi NW 13.8 mph 23.0 mph N/A   Clear
5:54 PM 33.1 °F 24.4 °F 1.0 °F 26% 30.17 in 10.0 mi WNW 11.5 mph - N/A   Clear
6:54 PM 28.9 °F 19.2 °F -2.0 °F 26% 30.21 in 10.0 mi NW 11.5 mph - N/A   Clear
7:54 PM 28.0 °F 21.7 °F 1.9 °F 33% 30.22 in 10.0 mi NNW 5.8 mph - N/A   Clear
8:54 PM 27.0 °F 19.5 °F -2.0 °F 29% 30.22 in 10.0 mi NNW 6.9 mph - N/A   Clear
9:54 PM 26.1 °F 17.6 °F -2.0 °F 30% 30.23 in 10.0 mi North 8.1 mph - N/A   Clear
10:54 PM 26.1 °F 16.2 °F -5.1 °F 26% 30.24 in 10.0 mi NNW 10.4 mph - N/A   Clear
11:54 PM 24.1 °F 11.0 °F -2.9 °F 31% 30.24 in 10.0 mi NNW 16.1 mph - N/A   Clear